Location: Unspecified
(44.4377°N, 88.0525°W)
Time: 11:04:01
(UTC-06:00)

Resurs 1-4 Rocket - Visible Passes

Search period start: 23 November 2014 00:00
Search period end: 03 December 2014 00:00
Orbit: 800 x 815 km, 98.4° (Epoch: 22 November)

Date Brightness Start Highest point End Pass type
(mag) Time Alt. Az. Time Alt. Az. Time Alt. Az.
23 Nov 4.7 03:07:33 10° NNE 03:08:06 13° NE 03:08:06 13° NE visible
23 Nov 3.7 04:47:25 10° N 04:49:10 20° NNW 04:49:10 20° NNW visible
24 Nov 3.9 04:22:42 10° N 04:24:16 20° N 04:24:16 20° N visible
25 Nov 4.2 03:58:10 10° NNE 03:59:21 17° NNE 03:59:21 17° NNE visible
25 Nov 4.0 05:40:00 10° NNW 05:40:26 11° NNW 05:40:26 11° NNW visible
26 Nov 4.5 03:33:48 10° NNE 03:34:27 14° NNE 03:34:27 14° NNE visible
26 Nov 4.0 05:14:34 10° NNW 05:15:32 14° NNW 05:15:32 14° NNW visible
27 Nov 4.0 04:49:36 10° N 04:50:38 15° N 04:50:38 15° N visible
28 Nov 4.2 04:24:52 10° N 04:25:45 15° N 04:25:45 15° N visible
29 Nov 4.4 04:00:19 10° NNE 04:00:52 13° NNE 04:00:52 13° NNE visible
30 Nov 4.7 03:35:56 10° NNE 03:35:59 10° NNE 03:35:59 10° NNE visible
30 Nov 4.2 05:16:48 10° NNW 05:17:04 11° NNW 05:17:04 11° NNW visible
01 Dec 4.3 04:51:47 10° N 04:52:12 12° N 04:52:12 12° N visible
02 Dec 4.4 04:27:02 10° N 04:27:20 12° N 04:27:20 12° N visible
